SAS1214 EKYT-EKCH

Flight info

Callsign SAS1214
Flight time 0h 29m
Altitude 17000
Route AAL M725 ADSEN DCT TNO
Aircraft A20N/M-SDE3FGIJ1RWXY/ALB1

Departure

Time 2026-05-05 15:23
Airport Aalborg Airport (EKYT)

Arrival

Time 2026-05-05 15:52
Airport Copenhagen Kastrup Airport (EKCH)
Time Latitude Longitude Altitude Speed Heading
2026-05-05 14:50 57.08733 9.86938 14 ft 0 kts 57°
2026-05-05 15:12 57.08732 9.86934 14 ft 2 kts 57°
2026-05-05 15:13 57.08723 9.86911 14 ft 2 kts 56°
2026-05-05 15:13 57.08715 9.86888 14 ft 2 kts 57°
2026-05-05 15:13 57.08707 9.86864 14 ft 2 kts 57°
2026-05-05 15:13 57.08701 9.86849 14 ft 1 kts 57°
2026-05-05 15:14 57.08690 9.86835 14 ft 2 kts
2026-05-05 15:14 57.08678 9.86840 14 ft 0 kts 322°
2026-05-05 15:14 57.08673 9.86848 14 ft 1 kts 316°
2026-05-05 15:14 57.08672 9.86851 14 ft 0 kts 317°
2026-05-05 15:16 57.08684 9.86831 14 ft 4 kts 319°
2026-05-05 15:17 57.08722 9.86770 14 ft 9 kts 320°
2026-05-05 15:17 57.08777 9.86689 14 ft 10 kts 321°
2026-05-05 15:17 57.08839 9.86597 14 ft 11 kts 322°
2026-05-05 15:17 57.08907 9.86502 14 ft 12 kts 322°
2026-05-05 15:18 57.08979 9.86400 14 ft 13 kts 322°
2026-05-05 15:18 57.09054 9.86292 14 ft 14 kts 322°
2026-05-05 15:18 57.09134 9.86178 14 ft 14 kts 322°
2026-05-05 15:18 57.09215 9.86063 14 ft 15 kts 323°
2026-05-05 15:19 57.09300 9.85946 14 ft 14 kts 327°
2026-05-05 15:19 57.09354 9.86047 14 ft 14 kts 87°
2026-05-05 15:19 57.09364 9.86235 14 ft 15 kts 83°
2026-05-05 15:19 57.09379 9.86433 14 ft 15 kts 83°
2026-05-05 15:20 57.09391 9.86637 14 ft 16 kts 84°
2026-05-05 15:20 57.09404 9.86854 14 ft 17 kts 83°
2026-05-05 15:20 57.09419 9.87075 14 ft 17 kts 83°
2026-05-05 15:20 57.09433 9.87299 14 ft 17 kts 84°
2026-05-05 15:21 57.09448 9.87529 14 ft 18 kts 82°
2026-05-05 15:21 57.09480 9.87719 14 ft 13 kts 37°
2026-05-05 15:21 57.09572 9.87743 14 ft 13 kts 342°
2026-05-05 15:21 57.09607 9.87705 14 ft 5 kts 324°
2026-05-05 15:22 57.09640 9.87656 14 ft 6 kts 311°
2026-05-05 15:22 57.09646 9.87587 14 ft 0 kts 264°
2026-05-05 15:22 57.09645 9.87576 14 ft 2 kts 264°
2026-05-05 15:22 57.09629 9.87298 14 ft 57 kts 262°
2026-05-05 15:23 57.09552 9.86130 15 ft 126 kts 264°
2026-05-05 15:23 57.09426 9.84251 248 ft 159 kts 265°
2026-05-05 15:23 57.09335 9.82173 798 ft 168 kts 269°
2026-05-05 15:23 57.09240 9.80100 1624 ft 164 kts 266°
2026-05-05 15:24 57.08843 9.78072 2162 ft 180 kts 234°
2026-05-05 15:24 57.07792 9.76747 2724 ft 197 kts 199°
2026-05-05 15:24 57.06386 9.76806 3243 ft 215 kts 162°
2026-05-05 15:24 57.05146 9.78435 3722 ft 233 kts 128°
2026-05-05 15:25 57.04489 9.81227 4124 ft 254 kts 96°
2026-05-05 15:25 57.04427 9.84595 4719 ft 270 kts 86°
2026-05-05 15:25 57.04519 9.88034 5508 ft 278 kts 85°
2026-05-05 15:25 57.04644 9.91607 6454 ft 282 kts 84°
2026-05-05 15:26 57.04774 9.95181 7343 ft 287 kts 84°
2026-05-05 15:26 57.04908 9.98836 8190 ft 294 kts 84°
2026-05-05 15:26 57.04859 10.02611 9013 ft 302 kts 104°
2026-05-05 15:26 57.03893 10.05962 9840 ft 304 kts 137°
2026-05-05 15:27 57.02172 10.08069 10613 ft 304 kts 159°
2026-05-05 15:27 57.00208 10.09689 11112 ft 321 kts 160°
2026-05-05 15:27 56.98109 10.11461 11554 ft 340 kts 159°
2026-05-05 15:27 56.95946 10.13367 11948 ft 358 kts 158°
2026-05-05 15:28 56.93644 10.15458 12296 ft 377 kts 158°
2026-05-05 15:28 56.91256 10.17666 12667 ft 393 kts 157°
2026-05-05 15:28 56.88801 10.19962 13276 ft 401 kts 157°
2026-05-05 15:28 56.86340 10.22278 13978 ft 405 kts 158°
2026-05-05 15:29 56.83839 10.24628 14687 ft 409 kts 158°
2026-05-05 15:29 56.81318 10.26989 15366 ft 413 kts 158°
2026-05-05 15:29 56.78732 10.29406 16016 ft 417 kts 158°
2026-05-05 15:29 56.76146 10.31820 16607 ft 421 kts 158°
2026-05-05 15:30 56.73564 10.34229 16890 ft 422 kts 158°
2026-05-05 15:30 56.70945 10.36669 16932 ft 422 kts 158°
2026-05-05 15:30 56.68364 10.39070 16937 ft 421 kts 158°
2026-05-05 15:30 56.65749 10.41499 16921 ft 421 kts 158°
2026-05-05 15:31 56.63151 10.43908 16936 ft 420 kts 158°
2026-05-05 15:31 56.60577 10.46292 16936 ft 420 kts 158°
2026-05-05 15:31 56.57975 10.48697 16925 ft 420 kts 158°
2026-05-05 15:31 56.55377 10.51094 16931 ft 420 kts 158°
2026-05-05 15:32 56.52763 10.53504 16935 ft 420 kts 158°
2026-05-05 15:32 56.50195 10.55866 16927 ft 420 kts 158°
2026-05-05 15:32 56.47593 10.58255 16929 ft 420 kts 158°
2026-05-05 15:32 56.45000 10.60634 16921 ft 420 kts 158°
2026-05-05 15:33 56.42404 10.63010 16922 ft 420 kts 158°
2026-05-05 15:33 56.39801 10.65390 16928 ft 419 kts 159°
2026-05-05 15:33 56.37203 10.67764 16911 ft 419 kts 159°
2026-05-05 15:33 56.34593 10.70143 16915 ft 419 kts 159°
2026-05-05 15:34 56.31997 10.72505 16926 ft 418 kts 159°
2026-05-05 15:34 56.29428 10.74840 16953 ft 419 kts 158°
2026-05-05 15:34 56.26825 10.77200 16960 ft 418 kts 158°
2026-05-05 15:34 56.24209 10.79570 16960 ft 419 kts 158°
2026-05-05 15:35 56.21610 10.81921 16953 ft 418 kts 158°
2026-05-05 15:35 56.19035 10.84246 16950 ft 418 kts 158°
2026-05-05 15:35 56.16418 10.86736 16947 ft 420 kts 155°
2026-05-05 15:35 56.13874 10.89617 16936 ft 424 kts 150°
2026-05-05 15:36 56.11427 10.92917 16933 ft 426 kts 145°
2026-05-05 15:36 56.09119 10.96386 16933 ft 427 kts 144°
2026-05-05 15:36 56.06811 10.99893 16922 ft 427 kts 144°
2026-05-05 15:36 56.04530 11.03358 16913 ft 427 kts 144°
2026-05-05 15:37 56.02231 11.06835 16913 ft 427 kts 144°
2026-05-05 15:37 55.99943 11.10283 16916 ft 427 kts 144°
2026-05-05 15:37 55.97674 11.13694 16915 ft 427 kts 144°
2026-05-05 15:37 55.95342 11.17192 16913 ft 427 kts 144°
2026-05-05 15:38 55.93019 11.20668 16913 ft 427 kts 144°
2026-05-05 15:38 55.90741 11.24072 16918 ft 427 kts 144°
2026-05-05 15:38 55.88409 11.27552 16918 ft 427 kts 144°
2026-05-05 15:38 55.86135 11.30941 16894 ft 425 kts 144°
2026-05-05 15:39 55.83832 11.34367 16422 ft 422 kts 144°
2026-05-05 15:39 55.81486 11.37843 15390 ft 428 kts 144°
2026-05-05 15:39 55.79210 11.41375 14490 ft 432 kts 137°
2026-05-05 15:39 55.77512 11.45823 13759 ft 436 kts 116°
2026-05-05 15:40 55.76690 11.51028 13156 ft 433 kts 99°
2026-05-05 15:40 55.76302 11.56302 12546 ft 427 kts 97°
2026-05-05 15:40 55.75946 11.61621 11914 ft 422 kts 97°
2026-05-05 15:40 55.75579 11.66748 11462 ft 412 kts 98°
2026-05-05 15:41 55.75108 11.71718 10982 ft 402 kts 107°
2026-05-05 15:41 55.73864 11.76054 10471 ft 390 kts 130°
2026-05-05 15:41 55.72133 11.79510 9884 ft 371 kts 136°
2026-05-05 15:41 55.70349 11.82718 9062 ft 357 kts 136°
2026-05-05 15:42 55.68651 11.85824 8287 ft 342 kts 134°
2026-05-05 15:42 55.67089 11.88790 7827 ft 319 kts 133°
2026-05-05 15:42 55.65649 11.91603 7455 ft 298 kts 132°
2026-05-05 15:42 55.64313 11.94256 7131 ft 280 kts 131°
2026-05-05 15:43 55.63050 11.96786 6808 ft 274 kts 130°
2026-05-05 15:43 55.61786 11.99333 6505 ft 273 kts 130°
2026-05-05 15:43 55.60534 12.01864 6177 ft 272 kts 130°
2026-05-05 15:43 55.59289 12.04383 5869 ft 270 kts 130°
2026-05-05 15:44 55.58050 12.06890 5559 ft 269 kts 130°
2026-05-05 15:44 55.56825 12.09365 5249 ft 268 kts 130°
2026-05-05 15:44 55.55591 12.11853 4932 ft 266 kts 129°
2026-05-05 15:44 55.54388 12.14277 4622 ft 265 kts 129°
2026-05-05 15:45 55.53177 12.16714 4310 ft 263 kts 129°
2026-05-05 15:45 55.51979 12.19119 4125 ft 255 kts 129°
2026-05-05 15:45 55.50842 12.21398 4051 ft 243 kts 129°
2026-05-05 15:45 55.49755 12.23580 3981 ft 233 kts 129°
2026-05-05 15:46 55.48683 12.25744 3975 ft 236 kts 128°
2026-05-05 15:46 55.47608 12.27931 3957 ft 238 kts 128°
2026-05-05 15:46 55.46524 12.30133 3696 ft 240 kts 128°
2026-05-05 15:46 55.45432 12.32347 3399 ft 239 kts 128°
2026-05-05 15:47 55.44517 12.34729 3083 ft 235 kts 104°
2026-05-05 15:47 55.44413 12.36605 2881 ft 228 kts 76°
2026-05-05 15:47 55.45488 12.39573 2646 ft 211 kts 38°
2026-05-05 15:47 55.46649 12.41164 2452 ft 205 kts 35°
2026-05-05 15:48 55.47739 12.42650 2400 ft 191 kts 37°
2026-05-05 15:48 55.48741 12.44111 2410 ft 187 kts 38°
2026-05-05 15:48 55.49691 12.45561 2519 ft 174 kts 38°
2026-05-05 15:48 55.50591 12.46958 2294 ft 173 kts 38°
2026-05-05 15:49 55.51481 12.48344 2081 ft 168 kts 38°
2026-05-05 15:49 55.52326 12.49663 1828 ft 155 kts 38°
2026-05-05 15:49 55.53091 12.50854 1607 ft 144 kts 38°
2026-05-05 15:49 55.53809 12.51971 1416 ft 132 kts 38°
2026-05-05 15:50 55.54474 12.53005 1242 ft 125 kts 37°
2026-05-05 15:50 55.55127 12.54015 1089 ft 124 kts 37°
2026-05-05 15:50 55.55773 12.55016 937 ft 124 kts 37°
2026-05-05 15:50 55.56421 12.56021 777 ft 123 kts 37°
2026-05-05 15:51 55.57062 12.57014 610 ft 123 kts 37°
2026-05-05 15:51 55.57703 12.58008 442 ft 123 kts 37°
2026-05-05 15:51 55.58347 12.59006 275 ft 122 kts 37°
2026-05-05 15:51 55.58992 12.60004 109 ft 121 kts 37°
2026-05-05 15:52 55.59598 12.60923 22 ft 100 kts 43°
2026-05-05 15:52 55.59992 12.61548 22 ft 50 kts 41°
2026-05-05 15:52 55.60196 12.61861 25 ft 35 kts 40°
2026-05-05 15:52 55.60366 12.62127 26 ft 30 kts 40°
2026-05-05 15:53 55.60543 12.62312 24 ft 28 kts 20°
2026-05-05 15:53 55.60730 12.62386 22 ft 27 kts 11°
2026-05-05 15:53 55.60883 12.62544 21 ft 25 kts 43°
2026-05-05 15:53 55.61015 12.62747 20 ft 24 kts 40°
2026-05-05 15:54 55.61145 12.62942 18 ft 24 kts 37°
2026-05-05 15:54 55.61266 12.63133 19 ft 22 kts 43°
2026-05-05 15:54 55.61380 12.63314 22 ft 20 kts 40°
2026-05-05 15:54 55.61488 12.63480 22 ft 20 kts 40°
2026-05-05 15:55 55.61591 12.63638 23 ft 19 kts 40°
2026-05-05 15:55 55.61690 12.63793 23 ft 19 kts 41°
2026-05-05 15:55 55.61789 12.63943 24 ft 18 kts 40°
2026-05-05 15:55 55.61888 12.64088 24 ft 18 kts 28°
2026-05-05 15:56 55.61996 12.64176 26 ft 16 kts 24°
2026-05-05 15:56 55.62102 12.64263 26 ft 16 kts 25°
2026-05-05 15:56 55.62209 12.64356 25 ft 17 kts 25°
2026-05-05 15:56 55.62322 12.64419 25 ft 16 kts 13°
2026-05-05 15:57 55.62433 12.64472 26 ft 16 kts 15°
2026-05-05 15:57 55.62523 12.64413 26 ft 15 kts 300°
2026-05-05 15:57 55.62584 12.64264 26 ft 10 kts 331°
2026-05-05 15:57 55.62636 12.64290 26 ft 8 kts 27°
2026-05-05 15:58 55.62680 12.64337 26 ft 6 kts 68°
2026-05-05 15:58 55.62677 12.64395 26 ft 2 kts 106°
2026-05-05 15:58 55.62675 12.64409 26 ft 1 kts 99°
2026-05-05 15:58 55.62673 12.64426 26 ft 1 kts 97°
2026-05-05 15:59 55.62672 12.64443 26 ft 0 kts 97°
2026-05-05 15:59 55.62672 12.64444 26 ft 0 kts 97°